Retour au catalogue

STARLINK-30271

ActifCommunicationsVLEO
NORAD 57669·PAYLOAD·🇺🇸 United States

Lancé Aug 22, 2023 depuis Vandenberg Space Force Base

Loading…

Prochains Passages (prochaines 24 heures)

TLE

FraisSource: CelesTrak SupGP

Époque: Sep 14, 2026, 22:43 UTC

1 57669C 23124G   26257.94701389  .00021984  00000+0  70709-3 0  2574
2 57669  53.1582  46.4385 0001204  82.0522  69.7595 15.31685075    18

Suivez STARLINK-30271 en temps réel avec AllMySat

Download on the App Store